Lid_Strength_Index
17 16 17 19 20 20 22 22 22 21 22 20 19 14 13 12 12 13 13 13 12 12 12 12 12 12 13 13 13 12 13 13 14 14 13 14 15 15 15 16 15 15 16 16
19 15 17 20 20 19 21 22 21 20 21 19 19 16 15 15 14 15 15 14 14 14 13 13 13 13 13 13 13 13 14 14 14 14 15 15 16 17 17 17 17 17 17 17
21 17 17 23 22 21 22 22 22 25 21 20 22 21 21 19 18 17 16 17 16 16 15 14 15 14 14 14 14 14 14 15 15 14 17 17 16 17 17 17 17 18 18 17
22 20 26 19 18 19 20 22 22 22 22 18 21 21 22 21 21 20 19 18 18 17 17 16 15 14 16 15 15 16 17 16 16 15 16 16 17 17 17 17 17 17 17 17
21 21 18 19 19 21 22 23 21 23 22 22 15 17 23 22 21 22 22 21 20 19 18 18 18 17 18 18 18 18 18 18 18 18 18 18 18 18 17 17 16 17 17 17
23 25 26 20 19 17 17 22 20 21 22 22 20 25 25 22 22 22 22 22 22 21 20 20 20 19 20 19 20 21 20 19 18 18 18 19 18 17 17 17 17 17 18 18
25 22 20 19 18 17 25 24 20 20 21 22 25 24 22 21 22 21 22 21 21 22 23 22 20 20 21 21 22 20 20 20 20 19 19 20 19 19 19 20 19 19 20 19
26 24 24 18 19 24 21 19 20 20 21 22 22 22 22 22 23 22 23 22 22 23 24 23 22 21 22 22 21 21 21 22 21 21 20 20 20 20 20 20 20 20 20 20
21 21 18 18 20 19 19 20 20 19 19 20 21 22 22 23 23 24 24 24 24 24 25 25 25 24 24 23 22 22 22 22 21 20 19 19 19 20 20 20 21 21 22 22
18 17 20 20 18 18 18 19 19 19 19 20 21 21 22 22 23 23 23 24 23 24 25 25 24 24 23 22 21 22 22 22 22 22 21 20 19 19 20 21 21 22 23 23
17 17 19 19 19 19 19 19 20 20 20 20 21 22 22 23 23 24 24 24 24 25 26 26 25 25 25 23 22 22 23 23 23 23 23 23 22 20 21 20 19 21 22 23
19 17 18 19 19 18 20 20 20 20 21 21 21 22 23 24 24 25 25 25 26 26 26 27 26 27 26 25 25 24 24 24 25 25 25 24 25 25 20 19 19 19 18 20
17 17 18 19 19 19 20 21 20 21 21 22 23 23 24 25 25 25 26 26 27 28 28 28 27 28 27 27 26 26 26 26 26 26 26 27 27 27 28 26 21 20 20 20
18 17 19 18 20 21 22 23 24 25 25 24 25 25 25 26 26 27 28 28 28 29 29 30 29 30 29 29 28 28 28 27 27 27 28 28 28 29 30 30 30 28 24 21
20 20 19 20 20 21 21 22 24 24 25 27 28 28 29 30 30 31 32 32 31 30 31 31 31 31 31 31 30 30 27 28 31 32 32 31 31 31 32 31 30 29 27 24
21 22 22 22 23 24 25 25 25 26 27 29 29 29 30 30 32 33 33 33 31 32 35 35 33 33 33 33 33 33 33 28 30 32 31 30 29 29 28 29 29 29 29 29
23 25 26 27 25 26 26 28 27 27 29 29 30 32 32 32 33 33 35 36 36 36 35 35 34 34 34 34 33 33 32 30 29 29 30 31 34 31 30 30 30 30 30 28
25 25 23 22 24 27 30 28 27 28 28 29 31 32 32 33 32 35 36 37 37 35 35 36 35 35 34 31 30 31 32 33 34 37 35 31 31 32 33 33 32 32 30 29
27 23 24 23 25 25 27 28 29 30 31 31 31 32 33 35 35 37 37 35 34 33 32 34 25 32 33 30 31 34 34 34 34 35 37 35 35 35 35 34 32 31 31 30
31 31 27 28 28 27 30 34 31 31 33 31 32 33 34 37 38 35 37 36 37 36 38 38 37 35 37 37 32 39 39 39 39 36 36 35 35 33 32 32 32 31 30 30
28 29 29 28 31 33 30 30 30 31 33 31 31 32 32 36 38 38 35 35 34 38 37 35 36 36 38 36 37 40 40 39 38 36 35 34 33 32 31 30 30 30 29 29
31 29 30 31 30 34 35 32 31 31 32 33 35 34 34 38 38 38 38 34 36 34 37 37 37 36 36 33 39 40 39 38 36 35 34 33 34 33 31 29 29 28 27 26
29 29 30 30 30 31 36 33 32 31 32 32 32 33 33 34 35 34 34 36 38 36 37 37 35 30 29 37 39 39 37 36 35 33 33 33 31 31 30 28 27 27 26 24
31 31 31 34 32 31 32 35 33 35 33 35 34 34 32 34 35 37 37 34 34 34 36 36 33 25 28 38 38 36 35 34 32 31 31 30 30 30 28 27 26 25 24 24
30 33 34 32 30 30 32 34 34 35 35 37 38 37 36 36 33 34 37 36 32 34 36 33 26 26 36 38 36 34 32 32 30 30 29 28 27 27 26 26 25 24 25 24
31 29 29 31 30 30 30 31 30 32 32 34 37 36 37 36 35 35 36 34 35 34 35 35 36 35 34 34 33 32 30 29 28 27 26 26 26 26 25 24 24 24 24 24
31 30 32 33 33 30 30 30 30 31 30 30 30 32 31 32 33 33 33 33 33 34 35 35 34 32 32 31 30 29 28 27 26 26 25 25 25 25 23 23 24 24 24 24